Simultaneous Nadir Overpasses (SNOs) Predictions

Prediction of SNOs between NOAA-19 and NPP Satellite Orbit:

Table of predicted SNOs for the next 14.0 days since TLE Epoch: 4/2/2022
Index Date (NOAA-19) Time (NOAA-19) Lat,Lon (NOAA-19) SZA (NOAA-19 ) Date (NPP) Time (NPP) Lat,Lon (NPP) SZA (NPP ) Distance(km) Time Diff (sec)
1 04/15/2022 21:28:07 76.70,-164.63 67.71 04/15/2022 21:29:12 76.73,-161.34 67.42 84.15 65
2 04/15/2022 22:19:03 -77.13, 4.50 112.07 04/15/2022 22:20:05 -77.10, 4.45 112.12 3.63 62
3 04/15/2022 23:09:57 77.12, 171.73 67.91 04/15/2022 23:10:51 77.13, 171.66 67.90 1.74 54
4 04/16/2022 00:01:03 -77.13, -20.99 112.10 04/16/2022 00:01:35 -77.11, -20.94 112.14 3.05 32
5 04/16/2022 00:51:57 77.12, 146.23 67.89 04/16/2022 00:52:21 77.13, 146.26 67.89 1.35 24
6 04/16/2022 01:43:03 -77.14, -46.49 112.12 04/16/2022 01:43:06 -77.16, -46.53 112.10 2.73 3
7 04/16/2022 02:33:56 77.17, 120.93 67.88 04/16/2022 02:33:51 77.14, 120.86 67.87 3.29 5
8 04/16/2022 03:25:03 -77.14, -71.98 112.15 04/16/2022 03:24:36 -77.16, -71.92 112.12 3.43 27



Historial Predications of SNOs between NOAA-19 and NPP
